TimePST,TemperatureF,Dew PointF,Humidity,Sea Level PressureIn,VisibilityMPH,Wind Direction,Wind SpeedMPH,Gust SpeedMPH,PrecipitationIn,Events,Conditions,WindDirDegrees,DateUTC
12:53 AM,46.0,37.0,71,29.88,10.0,North,3.5,-,N/A,,Clear,10,2013-03-08 08:53:00
1:53 AM,44.1,36.0,73,29.87,10.0,NNE,4.6,-,N/A,,Clear,20,2013-03-08 09:53:00
2:53 AM,39.0,35.1,86,29.85,10.0,NW,3.5,-,N/A,,Clear,320,2013-03-08 10:53:00
3:53 AM,41.0,36.0,82,29.84,10.0,NNE,4.6,-,N/A,,Clear,20,2013-03-08 11:53:00
4:53 AM,41.0,35.1,79,29.84,10.0,North,6.9,-,N/A,,Clear,360,2013-03-08 12:53:00
5:53 AM,39.9,35.1,83,29.85,10.0,North,5.8,-,N/A,,Clear,10,2013-03-08 13:53:00
6:53 AM,39.0,34.0,82,29.86,10.0,NNW,6.9,-,N/A,,Clear,340,2013-03-08 14:53:00
7:53 AM,44.1,35.1,71,29.86,10.0,North,5.8,-,N/A,,Clear,10,2013-03-08 15:53:00
8:53 AM,48.9,37.0,64,29.86,10.0,North,5.8,-,N/A,,Clear,350,2013-03-08 16:53:00
9:53 AM,53.1,37.9,57,29.86,10.0,NNW,6.9,-,N/A,,Clear,340,2013-03-08 17:53:00
10:53 AM,57.9,37.9,47,29.85,10.0,NNW,6.9,-,N/A,,Clear,340,2013-03-08 18:53:00
11:53 AM,62.1,36.0,38,29.84,10.0,WNW,9.2,20.7,N/A,,Clear,290,2013-03-08 19:53:00
12:53 PM,64.0,34.0,33,29.83,10.0,NNW,8.1,-,N/A,,Clear,330,2013-03-08 20:53:00
1:53 PM,66.0,33.1,29,29.81,10.0,NNW,8.1,-,N/A,,Clear,330,2013-03-08 21:53:00
2:53 PM,66.9,30.9,26,29.81,10.0,NNW,9.2,-,N/A,,Clear,330,2013-03-08 22:53:00
3:53 PM,66.9,30.0,25,29.81,10.0,NW,8.1,19.6,N/A,,Clear,310,2013-03-08 23:53:00
4:53 PM,66.9,28.9,24,29.82,10.0,WNW,9.2,-,N/A,,Clear,300,2013-03-09 00:53:00
5:53 PM,62.1,32.0,32,29.85,10.0,NNW,4.6,-,N/A,,Clear,330,2013-03-09 01:53:00
6:53 PM,57.9,33.1,39,29.88,10.0,Calm,Calm,-,N/A,,Scattered Clouds,0,2013-03-09 02:53:00
7:53 PM,54.0,39.9,59,29.91,10.0,ESE,9.2,-,N/A,,Clear,110,2013-03-09 03:53:00
8:53 PM,54.0,43.0,66,29.96,10.0,SE,8.1,-,N/A,,Mostly Cloudy,130,2013-03-09 04:53:00
9:53 PM,51.1,44.1,77,30.00,10.0,SSE,5.8,-,N/A,,Clear,150,2013-03-09 05:53:00
10:53 PM,48.9,43.0,80,30.01,10.0,SSE,9.2,-,N/A,,Clear,160,2013-03-09 06:53:00
11:53 PM,46.0,41.0,83,30.04,10.0,South,4.6,-,N/A,,Clear,180,2013-03-09 07:53:00